CAPE
0 0 0 0 0 0 0 0 0 0 0 133 118 327 344 354 343 423 523 534 535 547 548 533 730 503 526 597 715 696 829 1473 1957 1794 1823 1991 2117 1829 1454 1299 1347 1490 1179 1173
0 0 0 0 0 0 0 0 0 7 15 7 238 272 257 372 483 564 703 647 694 806 729 803 822 655 694 642 700 988 977 1695 1762 1721 1770 1702 1630 1414 1430 1599 1760 1310 878 1002
0 0 0 0 0 0 0 0 4 16 31 32 167 230 295 356 464 602 655 750 886 951 890 926 830 699 895 849 1088 1181 1399 1724 1646 1761 1790 1957 1906 1545 1417 1479 1534 1003 711 305
0 0 0 0 0 0 0 0 3 28 42 19 81 74 232 269 277 309 331 697 782 731 924 861 890 699 841 1129 1483 1509 1832 1942 2094 2089 1989 1855 744 501 293 1102 1187 148 0 0
0 0 0 0 0 0 0 0 0 58 62 52 29 32 55 77 150 178 224 474 526 659 932 978 918 688 1009 1298 1764 1719 1897 2188 2243 1902 1694 1922 489 23 284 468 0 0 0 0
0 0 0 0 0 0 0 0 0 61 67 52 37 33 30 36 81 56 131 322 498 464 890 1040 1074 866 1265 1398 1722 1993 2114 2005 2151 2014 1639 699 0 0 7 0 0 0 0 73
0 0 0 0 0 0 0 0 0 0 6 0 8 54 3 13 47 57 19 201 446 354 508 854 951 1015 1428 1570 1586 1941 2100 1661 1752 1827 881 0 0 0 0 0 0 0 38 30
0 0 0 0 0 0 0 0 0 0 0 0 0 0 0 3 25 47 22 127 301 357 417 563 472 323 1043 1461 1564 1739 2033 1840 2139 1851 1349 0 0 0 0 0 0 0 0 0
0 0 0 0 0 0 0 0 0 0 0 0 0 0 0 8 16 28 18 41 184 355 335 422 324 403 870 1194 1519 1786 1708 1962 1717 1164 0 0 0 1 83 145 144 0 0 0
0 0 0 0 0 0 0 0 0 0 0 0 0 0 2 43 40 56 33 19 31 139 262 319 318 439 979 1071 1572 1848 1562 1816 1697 1163 55 0 3 19 70 46 7 4 4 0
0 0 0 0 0 0 0 0 0 0 0 0 0 0 0 61 61 69 73 52 35 55 111 263 320 393 909 1078 1486 1833 1724 1878 1906 1348 232 184 206 140 31 32 6 0 0 34
0 0 0 0 0 0 0 0 0 0 0 0 0 0 0 33 38 47 82 75 73 70 83 153 214 332 622 980 1492 1730 1760 1883 1935 1089 452 372 386 369 178 113 89 9 48 43
0 0 0 0 0 0 0 0 0 0 0 0 0 0 0 0 1 44 56 71 54 23 28 77 185 237 411 826 1375 1590 1695 1862 1855 1186 788 524 481 477 166 127 87 28 35 12
0 0 0 0 0 0 0 0 0 0 0 0 0 0 0 0 0 0 0 0 0 7 26 117 248 270 431 810 1337 1524 1617 1769 1661 1130 969 816 447 138 54 110 67 54 52 32
0 0 0 0 0 0 0 0 0 0 0 0 0 0 0 0 0 0 0 4 0 36 78 90 357 458 625 832 1253 1473 1538 1640 1477 1151 1139 977 487 289 40 70 81 71 111 134
0 0 0 10 0 0 2 0 2 0 0 3 0 0 0 5 2 14 16 23 1 45 176 477 256 741 919 1072 1300 1412 1497 1580 1383 1261 1278 916 383 295 102 134 179 212 217 364
0 0 1 21 3 0 21 0 1 5 0 1 0 0 19 29 56 27 14 2 3 13 0 159 991 1090 1313 1418 1390 1381 1421 1535 1549 1555 1200 640 314 211 222 268 364 383 370 391
24 1 5 17 15 22 1 0 20 32 29 20 0 0 0 45 102 74 21 9 5 0 1 0 42 982 1502 1819 1653 1505 1542 1614 1738 1430 967 442 357 293 332 388 433 431 445 538
129 2 13 10 13 6 26 47 46 42 29 109 58 58 78 65 77 71 32 20 0 0 0 10 125 268 992 1722 1945 1869 1793 1866 1804 1317 701 536 500 445 441 471 487 546 639 785
136 137 66 21 13 4 104 149 131 137 98 118 148 96 72 86 60 63 33 27 5 128 164 251 382 1117 1530 1637 1895 1981 1925 2010 1749 1371 943 532 527 504 454 486 567 699 830 893
154 168 98 110 35 18 197 210 154 157 119 77 95 105 120 151 174 128 163 195 219 243 330 433 943 1592 1711 1652 1725 1840 1901 2000 1577 1187 631 313 608 567 525 641 915 1025 962 770
157 210 119 109 137 96 148 238 346 190 171 100 85 62 75 64 170 138 110 31 13 122 243 515 829 1589 1662 1751 1673 1767 1772 1513 1158 668 315 279 309 485 836 1109 1306 845 725 620
130 6 90 166 86 88 184 231 124 167 203 167 59 73 77 34 55 56 20 15 2 0 15 284 468 1545 1729 1814 1808 1849 1729 1373 972 651 398 348 163 38 41 698 1045 808 605 496
45 78 84 7 33 84 96 190 223 211 239 190 86 43 89 56 44 238 401 634 989 1008 1130 1273 1519 1847 1912 1821 1852 1766 1424 1161 891 703 291 30 18 0 105 580 696 508 432 305
138 207 184 195 158 9 13 95 113 105 229 212 130 56 46 16 1193 1453 1149 1149 1071 1192 1437 1670 1909 2029 1963 1834 1593 1361 994 777 631 216 70 0 0 22 308 349 526 456 397 117
79 338 201 196 88 0 20 79 155 89 152 76 43 3 0 0 221 1452 1244 1241 1203 1170 1589 1917 2042 2069 1968 1431 1008 646 409 245 134 107 77 16 14 192 357 518 349 281 182 76
CIN
0 0 0 0 0 0 0 0 0 -2 -1 -165 -175 -128 -161 -154 -137 -146 -155 -150 -104 -78 -75 -96 -68 -102 -226 -206 -120 -100 -100 -48 -32 -39 -49 -27 -13 -14 -28 -34 -28 -14 -8 -20
0 0 0 0 0 0 0 0 -3 -29 -5 -24 -128 -130 -150 -172 -142 -151 -114 -117 -94 -60 -65 -59 -78 -206 -192 -182 -165 -122 -85 -66 -51 -55 -35 -34 -22 -31 -26 -20 -14 -4 -32 -39
0 0 0 0 0 0 0 0 -18 -26 -24 -21 -113 -94 -127 -142 -136 -112 -95 -102 -103 -137 -94 -77 -89 -173 -161 -161 -176 -125 -97 -57 -47 -45 -36 -21 -13 -23 -16 -17 -8 -18 -40 -44
0 0 0 0 0 0 0 0 -17 -79 -36 -10 -85 -88 -125 -131 -123 -134 -130 -116 -110 -182 -139 -112 -107 -170 -153 -177 -140 -112 -75 -89 -60 -43 -48 -36 -108 -107 -173 -34 -14 -220 0 0
0 0 0 0 0 0 0 0 0 -75 -34 -21 -87 -55 -100 -86 -98 -145 -154 -157 -148 -152 -242 -242 -144 -229 -174 -164 -123 -100 -90 -75 -58 -53 -77 -31 -125 -373 -177 -104 0 0 0 -18
0 0 0 0 0 0 0 0 0 -37 -19 -10 -50 -34 -39 -93 -107 -123 -131 -203 -124 -135 -262 -229 -203 -164 -189 -145 -105 -100 -78 -76 -59 -50 -48 -133 0 0 -232 0 0 0 0 -146
0 0 0 0 0 0 0 0 0 0 -15 0 -14 -53 -24 -120 -73 -58 -94 -227 -137 -100 -226 -214 -183 -167 -186 -141 -129 -100 -80 -79 -75 -51 -82 0 0 0 0 0 0 0 -227 -115
0 0 0 0 0 0 0 0 0 0 0 0 0 0 0 -332 -132 -89 -54 -213 -121 -93 -196 -155 -230 -305 -231 -184 -149 -162 -102 -80 -48 -47 -46 0 0 0 0 0 0 0 0 0
0 0 0 0 0 0 0 0 0 0 0 0 0 0 0 -205 -245 -69 -68 -106 -135 -101 -170 -129 -274 -303 -299 -250 -228 -200 -159 -95 -77 -94 -16 0 0 -65 -307 -261 -199 0 -46 0
0 0 0 0 0 0 0 0 0 0 0 0 0 0 -12 -143 -166 -48 -39 -34 -142 -102 -121 -98 -258 -305 -323 -309 -291 -246 -175 -125 -101 -100 -309 0 -125 -384 -297 -321 -196 -63 -257 0
0 0 0 0 0 0 0 0 0 0 0 0 0 0 0 -105 -94 -90 -46 -32 -40 -90 -161 -174 -217 -232 -335 -284 -285 -259 -176 -113 -88 -89 -25 -20 -165 -273 -409 -365 -250 0 0 -274
0 0 0 0 0 0 0 0 0 0 0 0 0 0 -4 -71 -67 -77 -77 -147 -55 -45 -64 -111 -134 -172 -359 -287 -314 -283 -195 -130 -88 -96 -15 -32 -224 -221 -272 -313 -271 -276 -297 -264
0 0 0 0 0 0 0 0 0 0 0 0 0 0 0 0 -21 -69 -61 -50 -62 -45 -38 -155 -96 -77 -386 -331 -342 -301 -234 -154 -91 -77 -41 -34 -212 -208 -305 -302 -259 -331 -281 -186
0 0 0 0 0 0 0 0 0 0 0 0 0 0 0 0 0 0 0 0 0 -75 -86 -214 -167 -88 -375 -335 -345 -335 -267 -163 -106 -82 -51 -42 -126 -30 -322 -292 -267 -251 -199 -185
0 0 0 0 0 0 0 0 0 0 0 0 0 0 0 0 0 0 0 -114 0 -98 -94 -141 -169 -231 -324 -294 -323 -296 -268 -188 -122 -97 -42 -58 -27 -156 -226 -267 -235 -193 -171 -125
0 0 0 -9 0 0 -4 0 -8 -1 -11 -7 0 0 0 -146 -116 -88 -65 -67 -48 -176 -208 -120 -197 -249 -280 -293 -289 -338 -280 -225 -137 -43 -37 -56 -160 -139 -230 -236 -203 -183 -165 -92
0 -1 -1 -3 -12 0 -6 0 -10 -42 -34 -15 0 0 -116 -79 -85 -70 -70 -15 -35 -52 -17 -195 -156 -232 -213 -212 -225 -206 -211 -186 -105 -68 -59 -88 -110 -113 -244 -228 -186 -166 -131 -82
-39 -1 -28 -7 -6 -1 -27 -5 -106 -137 -116 -93 -14 0 -98 -67 -62 -49 -39 -43 -25 -3 -20 0 -108 -179 -170 -147 -130 -114 -109 -111 -61 -42 -66 -125 -202 -77 -228 -187 -146 -130 -132 -93
-174 -264 -1 -7 -18 -7 -69 -108 -62 -33 -92 -84 -152 -138 -109 -95 -70 -56 -32 -21 0 0 0 -171 -178 -209 -262 -163 -107 -82 -66 -59 -34 -47 -31 -16 -251 -226 -194 -150 -150 -152 -93 -60
-59 -99 -193 -223 -12 -30 -225 -375 -121 -155 -50 -96 -72 -60 -63 -68 -70 -221 -71 -68 -50 -122 -143 -138 -129 -350 -196 -171 -132 -83 -55 -29 -44 -21 -44 -41 -141 -166 -172 -176 -211 -133 -68 -25
-68 -73 -35 -60 -66 -136 -186 -223 -91 -60 -128 -81 -54 -28 -111 -138 -93 -98 -122 -110 -97 -109 -80 -90 -267 -230 -159 -113 -102 -61 -47 -31 -22 -17 -40 -113 -126 -116 -108 -148 -137 -62 -29 -21
-231 -115 -41 -51 -33 -64 -167 -206 -251 -336 -185 -36 -72 -29 -77 -33 -46 -77 -86 -51 -22 -50 -89 -117 -147 -144 -152 -113 -59 -41 -22 -10 -13 -23 -30 -75 -53 -69 -72 -125 -67 -31 -33 -29
-204 -118 -177 -196 -98 -153 -160 -101 -156 -161 -116 -139 -73 -92 -99 -103 -56 -35 -38 -45 -26 -104 -219 -132 -220 -225 -108 -88 -37 -14 -11 -23 -42 -43 -63 -52 -68 -15 -12 -19 -12 -27 -39 -27
-334 -228 -140 -58 -62 -64 -128 -139 -78 -55 -72 -85 -51 -41 -35 -42 -76 -162 -105 -128 -154 -217 -227 -420 -279 -165 -102 -61 -34 -16 -14 -33 -73 -67 -25 -22 -13 0 -37 -31 -28 -18 -17 -12
-107 -65 -220 -123 -253 -49 -101 -25 -105 -51 -84 -51 -33 -14 -19 -27 -103 -76 -81 -96 -169 -200 -233 -228 -130 -110 -76 -53 -47 -38 -38 -58 -36 -33 -3 -21 0 -115 -59 -26 -9 -18 -35 -34
-112 -86 -64 -159 -256 0 -159 -94 -58 -71 -62 -71 -27 -42 0 0 -195 -87 -118 -27 -19 -114 -108 -76 -56 -65 -60 -92 -63 -83 -45 -39 -15 -18 -15 -160 -205 -119 -52 -20 -29 -60 -35 -27
Wind_Speed
nan nan nan nan nan nan nan nan nan nan nan 20 26 24 27 26 28 21 16 11 12 15 11 13 11 10 8 7 7 8 10 10 10 8 9 8 9 10 11 13 14 15 15 16
nan nan nan nan nan nan nan nan nan nan nan nan 30 29 25 28 25 16 14 17 18 12 13 10 9 9 8 9 8 8 9 11 10 9 9 10 11 12 13 14 16 18 17 17
nan nan nan nan nan nan nan nan nan nan nan nan 33 21 20 20 12 10 17 22 26 18 15 11 8 6 6 7 8 11 12 14 11 11 10 9 9 11 14 15 19 20 22 22
nan nan nan nan nan nan nan nan nan nan nan nan nan nan 21 26 19 9 19 31 31 17 19 13 11 9 8 10 10 12 13 13 13 16 15 16 16 16 15 18 19 21 nan nan
nan nan nan nan nan nan nan nan nan nan nan nan nan nan nan nan 19 17 26 28 25 30 28 19 14 14 14 15 15 16 16 16 16 19 21 22 22 nan 21 21 nan nan nan nan
nan nan nan nan nan nan nan nan nan nan nan nan nan nan nan nan nan nan 21 27 28 30 23 24 23 18 15 16 19 20 21 19 23 24 25 29 nan nan nan nan nan nan nan nan
nan nan nan nan nan nan nan nan nan nan nan nan nan nan nan nan nan nan nan 34 30 28 21 24 30 28 23 26 25 26 28 26 29 27 26 nan nan nan nan nan nan nan nan nan
nan nan nan nan nan nan nan nan nan nan nan nan nan nan nan nan nan nan nan 35 30 32 27 24 24 22 21 27 29 30 30 28 27 24 23 nan nan nan nan nan nan nan nan nan
nan nan nan nan nan nan nan nan nan nan nan nan nan nan nan nan nan nan nan nan 30 35 35 34 25 20 16 23 31 33 33 34 32 28 nan nan nan nan nan 29 32 nan nan nan
nan nan nan nan nan nan nan nan nan nan nan nan nan nan nan nan nan nan nan nan nan 37 37 36 28 25 20 21 28 33 35 36 35 32 nan nan nan nan nan nan nan nan nan nan
nan nan nan nan nan nan nan nan nan nan nan nan nan nan nan nan nan nan nan nan nan nan 36 31 30 26 25 23 25 29 32 34 35 37 34 34 31 32 nan nan nan nan nan nan
nan nan nan nan nan nan nan nan nan nan nan nan nan nan nan nan nan nan nan nan nan nan nan 29 27 35 36 39 35 31 31 34 38 42 39 35 34 34 33 30 nan nan nan nan
nan nan nan nan nan nan nan nan nan nan nan nan nan nan nan nan nan nan nan nan nan nan nan nan 31 34 37 40 42 41 34 33 38 40 39 34 34 35 36 34 nan nan nan nan
nan nan nan nan nan nan nan nan nan nan nan nan nan nan nan nan nan nan nan nan nan nan nan 32 32 32 39 42 43 48 44 37 38 39 36 36 37 37 nan 38 nan nan nan nan
nan nan nan nan nan nan nan nan nan nan nan nan nan nan nan nan nan nan nan nan nan nan nan nan 33 35 43 45 43 43 43 40 42 41 37 36 37 39 nan nan nan nan 38 38
nan nan nan nan nan nan nan nan nan nan nan nan nan nan nan nan nan nan nan nan nan nan 36 40 34 40 44 46 47 50 45 40 45 42 41 38 38 37 38 41 38 37 38 39
nan nan nan nan nan nan nan nan nan nan nan nan nan nan nan nan nan nan nan nan nan nan nan 50 40 40 40 52 51 52 45 44 44 44 42 38 38 38 36 40 40 39 39 42
nan nan nan nan nan nan nan nan nan nan nan nan nan nan nan nan 32 nan nan nan nan nan nan nan nan 44 46 52 51 49 42 42 45 42 38 40 40 37 37 39 40 40 42 41
40 nan nan nan nan nan nan nan nan nan nan 33 nan nan nan nan nan nan nan nan nan nan nan nan 40 37 38 43 50 55 48 47 46 42 35 40 41 39 39 39 40 42 42 37
46 44 nan nan nan nan 48 47 52 47 nan 37 44 nan nan nan nan nan nan nan nan 47 48 45 35 43 52 47 58 59 51 52 51 45 40 43 40 40 40 39 44 42 40 34
47 50 nan 43 nan nan 45 49 49 61 44 nan nan 46 40 48 35 39 48 47 46 44 45 40 41 39 48 48 51 50 52 49 49 47 44 42 43 38 42 44 47 47 39 44
53 51 47 48 45 nan 58 49 61 52 55 58 nan nan nan nan 44 51 52 nan nan 45 36 35 41 43 37 45 45 47 48 49 53 52 51 52 59 58 47 54 48 44 37 43
48 nan nan 55 nan nan 47 55 50 53 55 55 nan nan nan nan nan nan nan nan nan nan nan 41 43 55 53 46 48 51 43 53 54 55 57 58 57 nan nan 34 42 46 40 50
nan nan nan nan nan nan nan 51 53 58 61 59 nan nan nan nan nan 58 55 50 40 27 31 49 54 51 56 60 54 51 48 47 50 49 51 nan nan nan 36 32 27 40 47 48
45 40 48 23 49 nan nan nan 47 55 50 57 46 nan nan nan 44 49 55 51 50 34 39 47 51 58 59 58 57 52 51 49 51 49 nan nan nan nan 57 49 43 48 44 45
nan 38 37 36 nan nan nan nan 21 nan 40 nan nan nan nan nan 38 40 54 44 36 50 55 51 53 58 56 53 51 49 46 48 48 48 nan nan nan 56 64 63 57 51 48 nan
Wind_Direction
nan nan nan nan nan nan nan nan nan nan nan 313 330 334 346 350 344 354 341 323 339 350 6 355 2 10 10 14 23 27 17 18 9 20 14 9 8 11 19 22 17 15 5 351
nan nan nan nan nan nan nan nan nan nan nan nan 318 329 339 352 355 13 3 343 354 322 330 351 342 340 2 9 12 20 10 358 5 356 359 354 348 353 345 350 347 346 344 348
nan nan nan nan nan nan nan nan nan nan nan nan 288 293 310 342 347 13 344 334 329 320 319 325 323 341 351 349 351 356 345 337 339 340 330 332 329 324 322 327 329 334 332 334
nan nan nan nan nan nan nan nan nan nan nan nan nan nan 300 328 332 343 340 331 331 332 322 311 322 326 341 346 333 325 316 318 327 329 324 327 323 319 318 315 322 326 nan nan
nan nan nan nan nan nan nan nan nan nan nan nan nan nan nan nan 320 356 348 359 341 334 330 325 326 322 332 322 323 315 309 309 313 318 323 312 303 nan 301 307 nan nan nan nan
nan nan nan nan nan nan nan nan nan nan nan nan nan nan nan nan nan nan 327 340 344 346 337 335 328 316 312 311 308 301 301 297 294 297 303 303 nan nan nan nan nan nan nan nan
nan nan nan nan nan nan nan nan nan nan nan nan nan nan nan nan nan nan nan 345 340 333 328 319 327 324 309 308 309 307 307 298 301 305 302 nan nan nan nan nan nan nan nan nan
nan nan nan nan nan nan nan nan nan nan nan nan nan nan nan nan nan nan nan 338 343 356 355 339 337 323 324 320 316 311 309 309 314 313 313 nan nan nan nan nan nan nan nan nan
nan nan nan nan nan nan nan nan nan nan nan nan nan nan nan nan nan nan nan nan 342 352 353 355 346 330 318 320 319 323 322 323 326 321 nan nan nan nan nan 310 308 nan nan nan
nan nan nan nan nan nan nan nan nan nan nan nan nan nan nan nan nan nan nan nan nan 338 351 345 355 355 351 336 330 326 325 326 324 319 nan nan nan nan nan nan nan nan nan nan
nan nan nan nan nan nan nan nan nan nan nan nan nan nan nan nan nan nan nan nan nan nan 346 348 2 357 350 342 332 320 318 321 321 315 311 307 309 310 nan nan nan nan nan nan
nan nan nan nan nan nan nan nan nan nan nan nan nan nan nan nan nan nan nan nan nan nan nan 347 353 354 356 349 339 324 316 316 314 308 309 306 305 304 306 308 nan nan nan nan
nan nan nan nan nan nan nan nan nan nan nan nan nan nan nan nan nan nan nan nan nan nan nan nan 341 346 343 349 349 343 327 315 301 300 301 299 299 304 308 314 nan nan nan nan
nan nan nan nan nan nan nan nan nan nan nan nan nan nan nan nan nan nan nan nan nan nan nan 331 326 335 343 347 351 344 337 321 303 303 309 307 304 306 nan 310 nan nan nan nan
nan nan nan nan nan nan nan nan nan nan nan nan nan nan nan nan nan nan nan nan nan nan nan nan 330 327 332 333 340 335 327 317 309 303 304 301 302 302 nan nan nan nan 313 311
nan nan nan nan nan nan nan nan nan nan nan nan nan nan nan nan nan nan nan nan nan nan 300 297 301 316 324 331 337 332 324 312 297 300 304 289 289 292 303 308 314 310 308 308
nan nan nan nan nan nan nan nan nan nan nan nan nan nan nan nan nan nan nan nan nan nan nan 297 306 316 319 332 324 325 321 309 306 306 303 293 291 294 303 305 307 307 305 307
nan nan nan nan nan nan nan nan nan nan nan nan nan nan nan nan 272 nan nan nan nan nan nan nan nan 307 321 328 318 308 306 305 298 297 296 296 296 297 302 299 301 300 299 313
206 nan nan nan nan nan nan nan nan nan nan 226 nan nan nan nan nan nan nan nan nan nan nan nan 288 292 298 319 322 315 311 300 296 300 304 297 297 300 293 292 294 295 304 312
214 214 nan nan nan nan 227 225 227 241 nan 236 249 nan nan nan nan nan nan nan nan 277 276 279 285 302 302 301 304 309 307 302 303 302 307 297 300 294 289 292 292 298 301 305
205 206 nan 221 nan nan 223 225 233 239 244 nan nan 245 244 252 249 244 253 262 279 276 280 289 295 301 301 301 308 306 303 304 299 300 294 287 283 293 287 281 282 292 299 301
213 206 202 202 218 nan 217 227 243 245 244 245 nan nan nan nan 245 253 259 nan nan 260 270 285 288 304 296 304 300 297 287 284 282 283 285 290 287 250 248 267 271 279 286 301
225 nan nan 214 nan nan 219 232 239 249 249 240 nan nan nan nan nan nan nan nan nan nan nan 290 299 292 292 295 298 293 292 290 288 289 290 294 297 nan nan 292 302 281 290 309
nan nan nan nan nan nan nan 225 228 234 240 237 nan nan nan nan nan 260 261 270 254 270 288 289 293 292 296 294 292 291 286 287 288 288 288 nan nan nan 303 308 273 300 316 315
234 230 244 228 238 nan nan nan 244 232 239 236 253 nan nan nan 255 264 265 256 280 270 260 281 293 297 294 290 288 288 291 293 290 297 nan nan nan nan 296 285 298 312 313 310
nan 254 268 248 nan nan nan nan 272 nan 270 nan nan nan nan nan 276 278 273 261 274 275 279 278 280 284 282 287 292 296 299 300 299 302 nan nan nan 296 294 304 311 298 303 nan